Flag for Austria Weather past 2 weeks in Waidhofen an der Thaya, Lower Austria, Austria

Now
71 °F

Mild.


Feels Like: 72 °F
Forecast: 61 / 89 °F
Wind: 5 mph from Northeast

Location: Retz

Current Time: Aug 30, 2015 at 4:34:57 AM

Latest Report: Aug 30, 2015 at 3:00 AM


Visibility: N/A

Pressure: 30.12 "Hg (28.40 "Hg at 506m altitude)

Humidity: 78%

Dew point: 63 °F

Location of Waidhofen an der ThayaLocation

Historic Weather in Waidhofen an der Thaya — Graph

°F

Waidhofen an der Thaya temperature yesterday

Maximum temperature yesterday: 87 °F (at 5:00 PM)
Minimum temperature yesterday: 70 °F (at 2:00 AM)
Average temperature yesterday: 77 °F

Past Weeks' High & Low Weather Summary

 TemperatureHumidityPressure
High89 °F (Aug 15, 6:00 PM)98% (Aug 17, 10:00 AM)30.23 "Hg (Aug 17, 10:00 AM)
Low55 °F (Aug 26, 7:00 AM)31% (Aug 26, 5:00 PM)29.66 "Hg (Aug 15, 6:00 PM)
Average68 °F67%29.97 "Hg
* Reported Aug 15 3:00 AM — Aug 30 3:00 AM, Waidhofen an der Thaya, Weather by CustomWeather, © 2015

Note: Actual official high and low records may vary slightly from our data, if they occured in-between our weather recording intervals... More about our weather records

Advertising

Waidhofen an der Thaya weather history for previous 24 hours

 ConditionsComfort  
Time TempWeatherWind HumidityBarometerVisibility
3:00 AM
Sun, Aug 30
71 °FMild.5 mph78%30.12 "HgN/A
2:00 AM72 °FMild.6 mph76%30.13 "HgN/A
1:00 AM72 °FMild.6 mph75%30.13 "HgN/A
12:00 AM74 °FMild.6 mph70%30.13 "HgN/A
11:00 PM
Sat, Aug 29
76 °FMild.5 mph66%30.13 "HgN/A
10:00 PM78 °FWarm.3 mph61%30.13 "HgN/A
9:00 PM79 °FWarm.5 mph58%30.12 "HgN/A
8:00 PM81 °FPassing clouds.3 mph56%30.11 "Hg11 mi
7:00 PM85 °FWarm.5 mph49%30.10 "HgN/A
6:00 PM87 °FWarm.3 mph44%30.12 "HgN/A
5:00 PM87 °FWarm.2 mph44%30.12 "HgN/A
2:00 PM86 °FPassing clouds.2 mph47%30.16 "Hg17 mi
11:00 AM80 °FWarm.1 mph57%30.19 "HgN/A
10:00 AM78 °FWarm.2 mph61%30.19 "HgN/A
9:00 AM77 °FMild.1 mph65%30.18 "HgN/A
8:00 AM72 °FPassing clouds.2 mph74%30.19 "Hg11 mi
7:00 AM71 °FPassing clouds.3 mph74%30.16 "Hg11 mi
6:00 AM70 °FMild.2 mph74%30.15 "HgN/A
5:00 AM71 °FMild.3 mph73%30.14 "HgN/A
Weather by CustomWeather, © 2015

See weather overviewHow to use our weather pages